This is the latest recevied weather packets stored in our database for station/object WD4DAN-13. If no packets are shown the sender has not sent any weather packets the latest 10 day(s).
| Time | Temp. | Humidity | Pressure | Rain* | Wind** | Luminosity | Snow |
|---|---|---|---|---|---|---|---|
| 1778016850 | 28.89° C | 47% | - | 0 mm | - | - | - |
| 1778016546 | 28.33° C | 48% | - | 0 mm | - | - | - |
| 1778016243 | 28.89° C | 48% | - | 0 mm | - | - | - |
| 1778015939 | 28.89° C | 46% | - | 0 mm | - | - | - |
| 1778015637 | 28.89° C | 46% | - | 0 mm | - | - | - |
| 1778015333 | 28.89° C | 46% | - | 0 mm | - | - | - |
| 1778015031 | 28.89° C | 46% | - | 0 mm | - | - | - |
| 1778014727 | 28.89° C | 46% | - | 0 mm | - | - | - |
| 1778014426 | 28.89° C | 45% | - | 0 mm | - | - | - |
| 1778014122 | 28.89° C | 47% | - | 0 mm | - | - | - |
| 1778013820 | 28.33° C | 47% | - | 0 mm | - | - | - |
| 1778013517 | 29.44° C | 45% | - | 0 mm | - | - | - |
| 1778013213 | 29.44° C | 48% | - | 0 mm | - | - | - |
| 1778012910 | 28.89° C | 47% | - | 0 mm | - | - | - |
| 1778012606 | 30° C | 47% | - | 0 mm | - | - | - |
| 1778012303 | 28.89° C | 46% | - | 0 mm | - | - | - |
| 1778012000 | 28.89° C | 46% | - | 0 mm | - | - | - |
| 1778011699 | 29.44° C | 46% | - | 0 mm | - | - | - |
| 1778011395 | 28.89° C | 46% | - | 0 mm | - | - | - |
| 1778011090 | 30° C | 45% | - | 0 mm | - | - | - |
| 1778010788 | 29.44° C | 48% | - | 0 mm | - | - | - |
| 1778010485 | 28.89° C | 46% | - | 0 mm | - | - | - |
| 1778010182 | 28.33° C | 48% | - | 0 mm | - | - | - |
| 1778009877 | 28.89° C | 49% | - | 0 mm | - | - | - |
| 1778009575 | 29.44° C | 46% | - | 0 mm | - | - | - |
* Rain latest hour (hover to see other rain measurements)
** Current wind speed in m/s (hover to see current wind gust speed)